Thermal, CA

6:55 AM PST on November 19, 2017 (GMT -0800)
Desert Resorts Regional

Weather History for KTRM - February, 2012

Change the Weather History Date:

Tuesday, February 28, 2012

  Actual Average Record
Temperature  
Mean Temperature 53 °F 61 °F  
Max Temperature 65 °F 77 °F 93 °F (1986)
Min Temperature 40 °F 44 °F 29 °F (1951)
Degree Days  
Heating Degree Days 12 5  
Month to date heating degree days 184 205  
Since 1 July heating degree days 1108 1065  
Cooling Degree Days 0 1  
Month to date cooling degree days 3 10  
Year to date cooling degree days 3 12  
Growing Degree Days 4 (Base 50)    
Moisture  
Dew Point 29 °F    
Average Humidity 42    
Maximum Humidity 60    
Minimum Humidity 24    
Precipitation  
Precipitation 0.00 in 0.02 in 0.77 in (1978)
Month to date precipitation 0.27 0.66  
Year to date precipitation 0.27 1.33  
Since 1 July precipitation 1.26  
Snow  
Snow 0.00 in - - ()
Month to date snowfall 0.0  
Year to date snowfall 0.0  
Snow Depth 0.00 in    
Sea Level Pressure  
Sea Level Pressure 30.12 in    
Wind  
Wind Speed 6 mph (NNW)    
Max Wind Speed 15 mph    
Max Gust Speed 20 mph    
Visibility 10 miles    
Events      
T = Trace of Precipitation, MM = Missing Value Source: NWS Daily Summary

Daily Weather History Graph

Daily Weather History Graph

Search for Another Location

Airport or City:

Trip Planner

Search our weather history database for the weather conditions in past years. The results will help you decide how hot, cold, wet, or windy it might be!

Date:

Astronomy

Feb. 28, 2012 Rise Set
Actual Time 6:14 AM PST 5:40 PM PST
Civil Twilight 5:49 AM PST 6:05 PM PST
Nautical Twilight 5:20 AM PST 6:34 PM PST
Astronomical Twilight 4:52 AM PST 7:02 PM PST
Moon 9:46 AM PST (2/28) No Moon Set
Length of Visible Light 12h 15m
Length of Day
11h 25m
Waxing Crescent, 39% of the Moon is Illuminated
Feb 28
Waxing Crescent
Feb 29
First Quarter
Mar 8
Full
Mar 14
Last Quarter
Mar 22
New

Hourly Weather History & Observations

Time (PST) Temp. Windchill Dew Point Humidity Pressure Visibility Wind Dir Wind Speed Gust Speed Precip Events Conditions
12:52 AM 48.9 °F - 33.1 °F 54% 29.91 in 10.0 mi NW 6.9 mph - N/A   Clear
1:52 AM 46.0 °F 43.9 °F 33.1 °F 61% 29.94 in 10.0 mi NW 4.6 mph - N/A   Clear
2:52 AM 46.0 °F 42.5 °F 32.0 °F 58% 29.97 in 10.0 mi WNW 6.9 mph - N/A   Clear
3:52 AM 46.9 °F - 30.9 °F 54% 29.99 in 10.0 mi NNW 8.1 mph - N/A   Clear
4:52 AM 48.9 °F - 28.9 °F 46% 30.02 in 10.0 mi NNW 12.7 mph - N/A   Clear
5:52 AM 44.1 °F 41.5 °F 28.0 °F 53% 30.06 in 10.0 mi NNE 4.6 mph - N/A   Clear
6:52 AM 43.0 °F - 28.0 °F 56% 30.10 in 10.0 mi Calm Calm - N/A   Clear
7:52 AM 52.0 °F - 28.0 °F 40% 30.14 in 10.0 mi Calm Calm - N/A   Clear
8:52 AM 55.9 °F - 28.9 °F 36% 30.17 in 10.0 mi NNW 6.9 mph - N/A   Clear
9:52 AM 57.9 °F - 26.1 °F 30% 30.18 in 10.0 mi NNW 4.6 mph - N/A   Clear
10:52 AM 60.1 °F - 25.0 °F 26% 30.19 in 10.0 mi Variable 4.6 mph - N/A   Clear
11:52 AM 61.0 °F - 25.0 °F 25% 30.18 in 10.0 mi NNW 4.6 mph - N/A   Clear
12:52 PM 62.1 °F - 26.1 °F 25% 30.16 in 10.0 mi WNW 9.2 mph - N/A   Clear
1:52 PM 63.0 °F - 26.1 °F 25% 30.16 in 10.0 mi Variable 3.5 mph - N/A   Clear
2:52 PM 64.0 °F - 27.0 °F 25% 30.15 in 10.0 mi WNW 6.9 mph - N/A   Clear
3:52 PM 63.0 °F - 27.0 °F 26% 30.15 in 10.0 mi Calm Calm - N/A   Clear
4:52 PM 63.0 °F - 28.9 °F 28% 30.15 in 10.0 mi Calm Calm - N/A   Clear
5:52 PM 59.0 °F - 30.0 °F 33% 30.16 in 10.0 mi NW 4.6 mph - N/A   Clear
6:52 PM 54.0 °F - 30.0 °F 40% 30.16 in 10.0 mi ENE 3.5 mph - N/A   Clear
7:52 PM 50.0 °F - 30.0 °F 46% 30.17 in 10.0 mi Calm Calm - N/A   Clear
8:52 PM 48.9 °F - 30.9 °F 50% 30.19 in 10.0 mi Calm Calm - N/A   Clear
9:52 PM 48.9 °F - 30.9 °F 50% 30.20 in 10.0 mi Calm Calm - N/A   Clear
10:52 PM 54.0 °F - 34.0 °F 47% 30.19 in 10.0 mi NNW 10.4 mph - N/A   Clear
11:52 PM 52.0 °F - 34.0 °F 50% 30.19 in 10.0 mi NNW 9.2 mph - N/A   Clear